User: anonymous   Login
Location: Jastrzębia Góra
(54.8312°N, 18.3037°E)
Time: 11:46:19
(UTC+01:00)
Language:

ISS - Orbit

View from above orbital plane
View from above orbital plane
View from above satellite
View from above satellite

Ground track
Ground track

The orbit data is extracted from the following two-line orbital elements,

1 25544U 98067A   19318.66000591  .00016717  00000-0  10270-3 0  9028
2 25544  51.6397 335.2315 0006528 280.1978  79.8437 15.50003835 38594
Epoch (UTC): 14 November 2019 15:50:24
Eccentricity: 0.0006528
inclination: 51.6397°
perigee height: 412 km
apogee height: 421 km
right ascension of ascending node: 335.2315°
argument of perigee: 280.1978°
revolutions per day: 15.50003835
mean anomaly at epoch: 79.8437°
orbit number at epoch: 3859

The dashed part of the orbit path shows where the satellite is in the earth's shadow,  

DLR